This is the latest recevied weather packets stored in our database for station/object PA3CPS. If no packets are shown the sender has not sent any weather packets the latest 10 day(s).
| Time | Temp. | Humidity | Pressure | Rain* | Wind** | Luminosity | Snow |
|---|---|---|---|---|---|---|---|
| 1777614582 | 8.33° C | 75% | 1026.3 hPa | 0 mm | - | 79 W/m² | - |
| 1777614284 | 7.78° C | 76% | 1026.4 hPa | 0 mm | - | 44 W/m² | - |
| 1777613980 | 7.78° C | 77% | 1026.3 hPa | 0 mm | - | 28 W/m² | - |
| 1777613677 | 7.22° C | 77% | 1026.3 hPa | 0 mm | - | 26 W/m² | - |
| 1777613379 | 7.22° C | 78% | 1026.3 hPa | 0 mm | - | 26 W/m² | - |
| 1777613076 | 6.67° C | 79% | 1026.2 hPa | 0 mm | - | 25 W/m² | - |
| 1777612773 | 6.67° C | 79% | 1026.2 hPa | 0 mm | - | 23 W/m² | - |
| 1777612472 | 6.11° C | 79% | 1026.1 hPa | 0 mm | - | 21 W/m² | - |
| 1777612173 | 6.11° C | 79% | 1026.2 hPa | 0 mm | - | 21 W/m² | - |
| 1777611873 | 5.56° C | 79% | 1026.1 hPa | 0 mm | - | 19 W/m² | - |
| 1777611572 | 5.56° C | 78% | 1026 hPa | 0 mm | - | 19 W/m² | - |
| 1777611273 | 5.56° C | 78% | 1026.2 hPa | 0 mm | - | 18 W/m² | - |
| 1777610972 | 5.56° C | 78% | 1026.2 hPa | 0 mm | - | 16 W/m² | - |
| 1777610675 | 5.56° C | 78% | 1026.1 hPa | 0 mm | - | 16 W/m² | - |
| 1777610371 | 5.56° C | 77% | 1026.2 hPa | 0 mm | - | 14 W/m² | - |
| 1777610068 | 5.56° C | 77% | 1026.2 hPa | 0 mm | - | 12 W/m² | - |
| 1777609746 | 5.56° C | 77% | 1026.1 hPa | 0 mm | - | 11 W/m² | - |
| 1777609147 | 6.11° C | 76% | 1026.3 hPa | 0 mm | - | 7 W/m² | - |
| 1777608844 | 6.11° C | 76% | 1026.3 hPa | 0 mm | - | 7 W/m² | - |
| 1777608545 | 6.11° C | 75% | 1026.2 hPa | 0 mm | - | 0 W/m² | - |
| 1777608244 | 6.11° C | 74% | 1026.2 hPa | 0 mm | - | 0 W/m² | - |
| 1777607943 | 6.11° C | 73% | 1026.2 hPa | 0 mm | - | 0 W/m² | - |
| 1777607644 | 6.11° C | 73% | 1026.2 hPa | 0 mm | - | 0 W/m² | - |
| 1777607344 | 6.11° C | 72% | 1026.2 hPa | 0 mm | - | 0 W/m² | - |
| 1777607044 | 6.67° C | 72% | 1026.2 hPa | 0 mm | - | 0 W/m² | - |
* Rain latest hour (hover to see other rain measurements)
** Current wind speed in m/s (hover to see current wind gust speed)